Location: *
(50.3440°N, 18.6237°E)
Time: 18:01:03
(UTC+00:00)

Cosmos 1602 - Pass Details

Date: 30 November 2020
Orbit: 512 x 535 km, 82.5° (Epoch: 17 January)

Event Time Altitude Azimuth Distance (km) Brightness Sun altitude
Rises 16:16:07 0° 352° (N) 2,693 7.2 -13.8°
Reaches altitude 10° 16:18:18 10° 355° (N) 1,795 6.3 -14.1°
Maximum altitude 16:22:13 65° 78° (ENE) 586 3.6 -14.7°
Drops below altitude 10° 16:26:05 10° 161° (SSE) 1,767 6.4 -15.3°
Sets 16:28:13 0° 164° (SSE) 2,647 7.3 -15.7°
